MCF1BS EGJJ-EGKK

Flight info

Callsign MCF1BS
Flight time N/A
Altitude 23000
Route ORIST L982 VASUX
Aircraft A320/M-SDE3FGHIRWY/LB1

Departure

Time N/A
Airport Jersey Airport (EGJJ)

Arrival

Time 2026-05-03 20:15
Airport London Gatwick Airport (EGKK)
Time Latitude Longitude Altitude Speed Heading
2026-05-03 20:15 51.14897 -0.19767 207 ft 15 kts 77°
2026-05-03 20:15 51.14922 -0.19591 207 ft 18 kts 78°
2026-05-03 20:15 51.14955 -0.19355 208 ft 23 kts 77°
2026-05-03 20:15 51.14991 -0.19089 209 ft 27 kts 78°
2026-05-03 20:16 51.15033 -0.18786 209 ft 29 kts 77°
2026-05-03 20:16 51.15074 -0.18494 215 ft 24 kts 78°
2026-05-03 20:16 51.15108 -0.18252 212 ft 14 kts 70°
2026-05-03 20:16 51.15182 -0.18191 209 ft 11 kts 26°
2026-05-03 20:17 51.15213 -0.18086 205 ft 10 kts 77°
2026-05-03 20:17 51.15232 -0.17949 213 ft 13 kts 77°
2026-05-03 20:17 51.15252 -0.17808 205 ft 15 kts 77°
2026-05-03 20:17 51.15275 -0.17641 209 ft 15 kts 77°
2026-05-03 20:18 51.15296 -0.17486 205 ft 14 kts 80°
2026-05-03 20:18 51.15326 -0.17373 212 ft 10 kts 26°
2026-05-03 20:18 51.15368 -0.17297 210 ft 9 kts 71°
2026-05-03 20:18 51.15387 -0.17198 205 ft 11 kts 75°
2026-05-03 20:19 51.15415 -0.17077 205 ft 13 kts 77°
2026-05-03 20:19 51.15435 -0.16934 211 ft 12 kts 77°
2026-05-03 20:19 51.15472 -0.16898 206 ft 7 kts 353°
2026-05-03 20:19 51.15493 -0.16905 213 ft 0 kts 348°